Theta_e
349 347 346 345 344 342 340 338 337 337 336 336 333 331 327 325 326 327 329 331 332 332 333 332 330 329 329 330 330 330 332 334 335 335 335 336 336 337 338 339 340 340 340 340 340 339 339 339 339 338 339 339 339 340 339 338 338 337 335 332 331 331 334 337 338 338 335 332 333 332 331 332 334 336 338 339 338 338 336 335 335 335 335 336 336
348 346 345 345 344 343 340 339 339 338 336 335 333 330 327 328 332 334 335 336 334 332 331 330 330 331 331 331 331 332 334 335 335 335 336 336 336 337 338 339 339 340 340 340 340 340 340 340 340 340 340 340 340 339 339 339 338 338 337 336 334 334 336 340 341 342 339 333 333 333 333 334 336 338 340 339 338 337 335 334 334 335 336 336 336
347 346 345 345 345 344 342 341 341 339 338 335 333 331 330 332 337 339 338 336 334 331 331 332 333 333 332 331 333 335 335 334 335 336 336 335 336 337 338 338 339 339 339 339 340 340 340 340 340 341 341 341 341 340 340 339 338 338 338 337 337 337 338 341 342 342 340 333 333 335 335 336 338 340 341 340 338 335 334 333 335 335 336 336 336
347 346 345 346 345 345 344 342 342 340 339 338 335 333 333 335 339 340 340 337 334 333 334 334 334 334 334 333 334 335 334 334 336 337 336 334 335 337 338 338 338 338 338 339 340 340 340 339 339 341 342 342 341 340 340 339 339 338 338 337 336 338 340 341 341 342 341 334 332 335 337 337 339 341 342 341 337 335 335 335 336 336 337 336 337
347 346 346 346 345 345 344 343 342 341 341 340 337 335 335 337 340 340 341 339 336 336 336 336 335 335 335 334 333 332 332 335 336 336 334 333 335 336 336 337 337 337 337 337 338 339 339 339 339 340 342 342 341 340 340 339 339 338 337 337 336 339 340 341 341 342 342 337 332 333 337 337 338 340 341 341 338 336 336 336 337 338 338 337 337
347 346 346 345 346 345 344 344 343 342 342 340 338 336 335 337 340 341 340 340 339 338 337 337 336 335 334 333 331 331 332 333 333 332 332 333 333 334 333 334 335 336 336 337 337 338 339 339 340 341 340 340 340 340 340 340 339 339 338 337 337 339 340 340 341 342 342 340 334 332 334 337 338 338 340 342 340 339 337 338 340 339 338 337 336
348 346 346 347 347 345 345 345 343 343 342 340 337 336 336 337 339 339 340 340 340 340 338 338 337 336 334 332 331 331 331 330 330 330 332 333 332 332 333 334 335 335 336 337 337 337 338 339 341 341 339 337 338 339 340 340 340 339 338 337 337 339 340 340 340 341 341 341 336 332 333 335 338 338 339 341 341 339 338 340 341 338 337 337 336
348 347 347 348 347 346 346 345 344 342 341 340 338 337 337 337 337 337 339 340 340 339 338 338 337 338 336 333 332 331 330 330 329 331 332 333 333 333 334 336 336 335 336 337 338 338 338 339 340 341 339 338 337 338 339 340 340 340 339 338 337 339 340 339 340 341 341 340 337 332 332 334 336 337 339 341 340 340 340 340 340 338 337 337 337
348 346 347 348 347 346 346 344 344 342 341 340 339 338 337 336 336 336 336 338 339 338 337 337 338 338 336 334 333 332 330 330 330 332 333 333 333 334 334 336 336 335 336 337 338 338 339 339 340 340 339 339 338 337 338 339 340 340 339 339 339 340 340 340 340 340 339 339 337 332 331 334 335 336 338 340 340 339 340 340 339 338 338 337 337
347 346 345 345 345 345 344 344 344 343 341 340 339 337 335 335 335 335 336 336 337 337 336 336 338 338 336 335 334 331 330 330 331 333 332 332 333 334 334 335 336 335 335 336 336 336 337 339 339 338 338 338 338 338 338 338 339 340 340 339 339 339 340 340 339 339 339 339 339 333 331 334 335 337 337 339 340 339 340 340 339 338 338 338 337
346 346 344 344 343 343 343 343 343 343 341 340 339 337 335 334 335 335 335 335 336 336 336 336 336 337 337 336 334 331 330 331 332 333 332 331 333 335 334 336 336 335 335 336 334 334 335 336 336 336 338 338 338 338 337 338 338 340 341 340 339 338 338 339 338 338 340 341 340 336 331 333 336 337 338 339 340 340 339 340 340 339 338 337 337
345 346 344 344 343 342 343 343 342 342 341 341 340 338 336 335 335 334 334 335 335 335 333 333 333 335 336 336 334 331 330 332 333 333 332 331 333 335 336 337 338 336 337 337 334 333 334 333 334 336 338 338 337 336 337 337 338 339 340 340 339 337 336 337 337 338 340 341 342 338 332 332 336 337 338 339 340 340 339 340 340 339 337 337 337
345 345 344 344 343 343 343 342 342 342 342 342 341 339 337 335 335 334 334 334 333 332 331 332 334 336 336 336 334 332 331 332 332 333 332 332 333 336 338 339 339 339 339 339 335 332 332 333 334 336 339 339 337 336 336 336 337 339 341 340 340 338 337 337 338 338 339 341 342 339 332 332 336 337 338 338 338 339 338 338 337 337 337 337 337
344 345 344 343 343 342 341 341 341 341 341 342 341 339 337 335 333 333 332 332 331 333 334 335 337 338 336 336 334 332 331 331 332 333 333 333 334 336 338 339 340 341 340 340 336 331 331 332 335 338 339 338 337 336 335 336 337 338 340 341 341 339 339 338 339 340 340 341 342 340 334 333 336 337 338 337 337 337 336 335 335 335 337 337 337
343 344 344 343 342 341 341 341 340 340 340 341 341 339 338 336 334 332 332 332 334 336 337 338 338 338 336 335 334 333 333 331 332 332 332 334 334 336 338 339 341 342 341 339 336 333 331 333 337 338 338 337 336 336 335 337 338 338 339 340 341 341 339 337 338 340 341 341 341 340 337 334 335 337 338 337 336 336 335 335 334 335 336 336 337
342 343 343 342 342 342 342 341 340 340 340 342 342 340 339 338 337 336 336 337 338 339 339 339 338 337 336 336 335 335 334 331 331 331 331 334 334 336 338 339 342 342 340 338 335 333 332 335 338 337 336 336 336 337 339 341 341 340 340 340 341 341 339 337 337 339 339 339 340 340 339 336 335 337 339 338 337 336 335 334 334 335 335 336 336
342 342 342 342 342 342 343 342 341 341 341 342 342 342 342 340 340 340 340 340 340 340 339 338 338 337 337 336 335 335 333 331 330 330 332 334 335 337 338 339 342 341 339 337 334 333 334 336 337 337 336 336 338 340 343 343 343 343 342 342 341 341 340 338 338 337 337 337 339 341 340 337 336 336 338 338 338 337 336 335 335 335 335 335 336
342 342 341 341 340 341 342 342 341 341 341 342 342 343 342 341 341 341 341 341 340 340 339 338 338 338 337 335 333 333 331 329 329 331 334 334 335 337 337 338 340 340 339 336 334 334 335 337 337 337 336 336 338 341 343 343 343 344 344 343 342 342 342 341 340 339 337 337 339 341 340 338 337 336 337 338 339 338 336 336 335 335 335 335 335
342 342 342 341 341 341 342 341 340 340 341 341 342 342 342 341 340 341 341 341 341 340 339 338 338 337 335 331 330 330 330 330 331 334 335 335 338 338 337 338 339 339 338 336 335 335 336 337 338 338 337 337 339 342 344 344 343 344 344 344 343 342 343 343 343 342 339 337 338 340 341 338 338 337 337 338 339 338 337 336 336 336 335 335 335
342 342 342 342 342 342 342 341 341 340 341 341 342 342 342 341 341 341 341 340 340 339 339 338 338 337 333 330 329 329 331 332 334 336 338 339 340 338 337 338 338 339 338 336 334 335 336 337 339 339 340 340 342 343 344 344 344 344 344 343 344 344 345 344 344 344 341 338 337 338 340 338 337 337 336 337 338 337 337 336 336 337 336 336 335
343 343 343 343 344 344 343 342 342 341 341 342 342 342 342 342 342 341 340 339 339 339 338 338 337 336 333 331 331 332 334 335 337 339 341 341 339 338 338 339 338 338 339 337 334 334 334 336 340 342 343 343 343 344 344 344 345 345 344 344 344 344 345 344 343 345 344 343 341 337 339 339 337 337 336 336 338 337 337 336 336 336 337 336 335
344 345 344 344 345 345 344 342 342 341 341 341 341 341 342 342 341 340 338 338 338 338 338 337 336 334 333 333 334 336 338 339 341 341 341 339 339 340 340 340 339 338 339 339 336 335 335 337 340 342 343 344 343 344 344 344 344 344 344 343 343 343 343 342 342 344 345 345 343 338 337 339 338 338 336 335 336 337 336 336 336 336 336 336 335
344 345 345 345 345 345 344 342 342 341 341 340 340 340 341 341 339 338 338 338 338 338 337 337 335 334 334 335 337 339 341 342 341 342 341 339 340 342 342 343 342 339 340 341 338 337 338 339 340 341 342 343 344 345 344 344 344 343 343 344 344 342 341 341 341 342 343 343 343 341 339 338 339 339 338 336 335 336 336 336 336 337 336 335 335
343 343 343 344 345 345 343 341 341 341 340 340 339 340 340 339 338 337 338 338 337 337 337 336 334 335 336 337 339 341 342 341 340 342 341 340 342 343 343 344 344 342 342 343 342 341 342 343 343 343 344 345 345 343 341 342 344 344 344 344 343 340 339 340 340 341 342 340 341 343 342 339 339 340 340 338 336 335 335 335 336 336 336 335 334
342 342 341 341 342 343 341 341 341 341 340 340 339 339 339 338 337 337 338 338 337 337 337 336 336 338 338 338 341 342 342 341 341 342 341 342 344 343 344 345 345 344 344 344 344 344 345 345 344 345 345 345 345 342 339 341 343 343 342 340 338 336 336 338 338 339 340 340 339 340 341 339 338 339 340 341 338 336 335 334 334 335 336 335 333
342 341 341 341 341 341 340 341 342 341 340 340 339 338 338 338 338 338 338 338 338 338 337 337 339 340 339 340 342 341 341 342 344 343 342 344 344 344 346 345 344 345 345 345 345 345 345 345 345 345 344 344 345 342 339 341 342 340 338 336 336 337 338 337 337 337 338 339 339 339 338 339 339 338 339 341 340 339 338 334 332 334 334 334 334
341 341 341 341 341 340 340 341 342 341 341 340 339 338 337 338 338 338 339 338 338 339 338 338 340 342 340 340 341 341 342 344 345 345 346 346 345 345 346 345 344 345 345 345 346 345 344 345 345 345 344 344 344 341 340 341 340 338 336 337 338 339 339 339 339 339 337 337 338 338 338 339 340 339 338 339 341 340 340 337 334 334 334 333 333
341 341 342 341 340 340 340 341 343 342 342 341 340 339 337 339 340 339 339 338 338 339 339 339 340 342 341 340 341 342 346 347 347 347 348 347 346 345 345 345 344 344 345 344 345 346 345 346 345 345 345 343 341 340 339 339 339 339 339 340 339 339 339 339 339 340 340 339 337 337 338 338 339 339 338 338 340 341 341 340 339 336 335 334 333
342 343 343 342 342 341 340 341 343 342 342 342 343 341 338 340 341 339 339 338 339 340 340 340 341 342 342 341 342 345 348 348 348 349 348 347 347 345 345 345 345 344 343 341 343 344 344 345 344 345 345 342 341 340 338 338 339 340 340 341 340 338 337 338 338 339 340 340 339 338 338 338 337 338 338 337 339 341 340 340 340 339 338 336 334
343 344 344 344 344 343 342 342 343 344 344 344 345 344 340 341 342 340 340 339 339 341 340 340 342 344 345 344 344 346 349 348 348 349 348 347 347 346 345 345 346 345 343 340 341 341 342 343 343 343 344 343 342 340 338 339 340 340 340 341 340 337 337 338 337 338 340 340 339 338 338 338 337 337 338 339 339 340 340 340 341 341 340 339 337
344 345 346 346 345 343 342 342 343 344 345 345 345 345 341 340 342 341 341 339 340 343 342 343 346 347 348 348 346 346 347 348 348 348 346 347 347 346 345 345 346 345 344 342 340 340 342 343 341 342 343 343 342 339 338 340 341 340 340 340 340 338 338 338 338 338 339 339 339 338 338 339 339 337 338 339 339 339 340 340 340 341 340 340 339
345 345 345 346 345 342 341 341 343 345 345 346 346 344 341 341 344 344 342 342 344 347 346 347 349 350 350 350 349 347 346 346 347 346 344 345 346 346 344 344 345 344 343 342 340 340 342 342 341 341 342 343 343 338 335 337 339 340 340 339 340 339 337 338 339 339 339 339 340 338 338 340 340 338 337 338 339 339 339 340 340 340 339 340 340
345 344 343 343 342 341 341 341 343 345 345 345 345 343 341 342 344 344 343 345 348 349 348 349 350 351 351 351 350 349 347 346 345 344 343 343 344 343 342 343 344 345 343 341 341 340 342 342 342 342 341 343 343 338 333 334 336 338 340 339 339 338 337 338 339 338 338 339 339 338 337 338 339 339 338 337 338 338 339 339 340 340 339 339 340
346 346 345 343 340 340 341 342 343 345 344 344 343 341 342 343 344 344 345 346 349 350 349 350 351 351 352 351 350 350 349 348 346 344 343 343 342 342 342 342 344 345 342 340 340 339 341 342 343 343 343 344 342 337 335 336 335 334 336 338 338 337 337 337 339 339 338 338 338 339 338 336 338 339 338 337 337 338 338 339 339 339 340 340 340
348 346 345 342 340 339 340 341 342 344 344 343 341 341 344 344 344 346 347 348 349 350 351 351 352 352 351 351 351 351 350 350 348 346 345 344 341 341 342 342 343 343 341 340 338 338 342 342 343 344 344 344 341 337 338 339 339 335 334 337 337 337 337 337 339 340 339 339 339 339 338 336 336 337 337 336 336 337 337 338 339 339 340 341 341
348 346 344 341 338 338 339 340 341 343 343 341 341 343 345 344 344 348 350 349 348 349 351 351 351 352 351 350 350 351 351 350 347 346 345 344 342 340 341 341 341 341 341 340 338 339 342 342 343 344 345 346 341 338 339 340 342 339 334 337 338 337 336 336 339 340 338 339 339 339 339 338 337 336 336 335 335 336 336 337 338 339 340 339 339
348 345 346 344 339 339 341 339 340 341 342 341 341 343 344 345 346 349 350 350 347 348 350 351 351 350 349 348 349 349 349 348 345 344 344 343 342 341 341 341 340 340 341 340 339 339 341 341 343 345 345 345 342 339 338 339 342 339 336 338 338 337 337 336 338 338 338 338 339 338 338 339 338 337 336 336 335 334 334 336 337 339 339 338 338
348 347 348 347 344 342 342 341 339 340 341 341 342 343 344 346 347 349 350 349 347 348 348 349 348 347 346 347 348 349 348 347 345 345 344 342 343 342 342 341 339 340 341 340 340 340 341 342 344 345 345 345 344 339 332 334 339 337 336 336 336 338 338 335 335 338 338 338 339 338 337 337 337 337 337 337 337 335 335 336 337 338 338 337 337
349 349 350 350 348 346 344 342 340 340 339 341 343 344 345 347 349 349 349 348 347 348 348 347 345 345 346 348 349 349 349 347 347 346 344 343 343 343 342 340 338 340 340 340 341 342 342 343 344 345 344 341 338 330 324 331 338 336 334 336 338 340 337 332 333 338 339 338 339 339 337 337 336 335 335 336 338 338 338 337 338 338 337 336 336
350 350 350 351 350 349 347 344 342 342 342 343 345 345 347 349 350 349 348 348 347 348 349 347 346 347 347 348 348 349 348 348 348 346 344 344 343 342 340 337 336 338 341 342 342 344 343 343 345 342 335 329 326 324 325 332 336 334 333 337 339 339 336 333 335 338 339 338 339 338 338 337 335 334 334 332 334 336 338 338 338 338 338 336 335
350 351 351 351 351 351 350 347 345 344 344 345 344 345 348 350 350 349 347 346 348 349 350 349 347 347 347 347 347 348 348 347 348 346 344 343 342 340 336 334 336 339 342 344 344 344 343 343 343 334 324 325 329 332 332 333 333 333 335 337 338 337 336 336 337 339 338 337 338 338 337 336 334 333 333 331 330 331 334 335 335 335 337 337 336
351 351 351 351 351 351 351 349 348 347 347 346 344 344 346 348 347 346 344 345 347 348 350 348 345 347 348 347 347 348 348 347 347 346 344 343 341 339 336 335 338 341 343 344 343 343 343 343 337 326 324 330 333 335 334 334 334 334 336 337 337 337 337 338 339 340 338 336 336 335 334 334 332 331 331 330 329 327 328 330 331 332 334 336 337
352 352 351 351 351 352 351 351 350 349 349 349 348 346 345 346 345 343 342 344 346 347 347 345 343 346 347 347 349 349 349 347 346 346 344 343 342 340 338 338 340 341 342 342 343 343 343 340 330 324 329 332 333 334 334 335 336 337 338 337 336 337 338 338 339 340 339 336 334 334 334 332 331 331 330 329 327 326 326 326 326 328 330 331 333
352 352 352 352 352 352 352 351 351 350 350 351 350 348 346 345 345 343 342 343 345 346 347 346 345 346 347 347 349 349 349 348 347 345 343 341 341 340 339 339 340 341 342 342 343 343 341 336 326 327 333 333 333 334 333 335 336 337 338 335 335 337 338 338 338 339 337 336 334 334 334 332 331 331 329 327 326 325 326 325 324 324 324 324 325
352 353 353 353 352 352 352 351 351 351 351 351 351 350 348 347 346 346 345 345 347 347 347 347 346 346 346 346 346 348 348 348 347 345 341 339 340 340 340 340 341 343 343 343 343 342 339 333 326 330 334 333 335 335 336 337 336 336 335 335 337 339 338 338 337 337 336 335 335 334 333 332 332 331 329 329 328 327 328 328 327 326 324 322 321
352 353 353 353 353 353 352 352 351 351 351 351 350 351 350 349 347 347 346 346 346 346 346 345 344 344 344 345 345 347 349 349 348 346 342 339 339 340 341 343 343 344 344 343 343 341 337 331 327 331 334 334 336 336 337 337 336 337 336 334 337 337 337 338 337 337 336 336 335 334 333 333 332 331 330 330 330 330 330 330 329 329 328 327 324
351 352 353 353 354 353 353 352 351 351 351 351 351 350 350 350 348 347 346 345 344 344 344 343 342 343 346 347 347 348 349 348 348 348 344 341 340 341 343 344 344 343 343 342 342 339 336 333 331 332 333 334 336 336 336 336 335 335 332 331 334 335 336 338 337 337 337 337 336 335 334 333 332 331 331 331 331 331 331 330 330 330 330 329 328
350 351 353 353 353 353 353 353 352 351 351 351 352 350 349 348 347 347 346 345 344 344 343 342 342 346 349 349 349 349 349 349 349 348 346 343 342 343 344 344 343 342 342 342 341 338 335 335 334 333 332 332 334 335 334 334 334 332 328 328 333 335 336 338 338 337 337 337 336 336 334 333 332 332 331 332 331 331 331 331 331 331 331 330 330
350 350 352 352 352 353 352 353 353 352 351 351 351 351 349 347 346 346 346 346 345 344 343 342 343 348 350 349 348 349 349 350 350 349 348 345 342 344 344 344 343 342 341 340 338 336 336 337 335 334 332 329 331 335 332 331 332 332 331 332 334 335 336 337 337 337 336 336 337 336 335 334 333 332 332 332 332 331 331 331 331 331 331 331 330
350 350 350 351 352 352 352 352 352 352 352 351 350 351 351 349 346 345 345 345 345 344 344 344 345 348 350 349 348 349 349 350 350 350 350 347 344 345 345 345 343 342 340 339 337 335 336 336 332 332 331 327 328 333 333 331 332 334 334 336 335 334 334 335 335 336 335 335 336 335 335 335 333 332 332 332 331 331 331 332 332 331 330 330 330
349 350 350 351 351 352 352 352 352 352 352 351 351 350 350 350 347 344 343 343 344 344 345 345 347 349 349 349 348 349 349 349 350 351 350 348 347 345 345 346 343 341 340 338 336 336 336 335 333 333 331 327 325 328 331 330 332 335 335 336 336 335 333 333 334 334 333 334 334 333 334 334 333 332 332 332 332 332 332 332 332 331 329 329 329
Wind_Speed
28 30 31 30 30 31 31 31 30 31 31 31 30 31 31 32 33 33 33 32 32 31 30 29 28 26 25 23 22 22 22 21 21 20 19 19 18 18 17 16 15 14 15 15 15 16 16 16 16 16 15 14 13 12 11 11 11 11 11 11 11 12 12 12 13 14 14 12 11 12 12 12 11 11 11 11 10 9 8 9 10 11 12 11 11
29 30 30 31 30 31 31 31 30 31 31 31 30 30 31 31 32 32 32 31 30 30 29 28 26 25 23 22 21 21 21 21 20 20 19 17 17 17 16 15 15 14 14 14 14 14 14 14 15 15 15 14 13 12 11 11 11 11 11 10 11 11 10 10 11 11 12 12 11 12 12 12 11 10 11 10 9 9 9 11 11 11 12 11 11
28 28 30 31 30 30 30 30 30 30 30 30 30 30 30 30 30 30 30 30 29 29 28 26 25 23 22 22 21 20 20 19 19 19 18 16 16 15 15 15 14 14 13 13 13 13 13 13 13 13 13 14 13 13 12 11 10 10 10 10 11 11 10 10 10 10 11 11 11 11 12 11 10 10 10 10 10 10 11 12 12 11 12 11 11
27 28 30 30 31 31 30 30 30 30 29 29 29 29 30 29 28 29 29 28 28 27 26 24 23 22 22 21 20 19 19 18 18 18 17 16 15 15 14 14 14 13 12 12 13 12 13 12 13 12 13 13 13 13 12 11 10 9 9 10 10 11 11 11 11 10 10 11 11 11 11 10 10 10 10 10 10 11 12 12 12 11 11 11 11
27 29 30 31 31 31 31 31 30 30 29 28 29 29 29 28 27 28 28 27 26 25 24 23 22 21 21 20 19 18 18 17 16 16 16 15 14 14 13 13 13 13 12 12 12 12 12 12 12 12 12 13 13 12 11 11 10 10 9 9 9 9 10 11 12 12 11 11 11 11 11 10 10 11 11 11 11 11 12 12 11 11 11 11 11
28 30 30 31 31 31 31 31 30 29 28 29 29 29 29 28 27 27 26 25 25 23 22 21 20 20 19 18 17 16 16 15 15 15 15 14 13 13 13 13 13 13 12 11 11 11 11 11 11 12 12 12 12 12 11 10 10 10 9 9 9 9 10 10 10 12 12 11 11 11 11 11 11 11 10 11 12 11 11 11 11 11 10 10 11
29 31 31 30 31 31 30 30 30 29 28 29 29 29 28 27 27 26 25 24 23 22 21 20 19 18 17 16 15 14 14 14 14 14 13 13 13 13 14 13 13 13 12 11 10 10 9 10 10 11 12 12 12 12 11 11 10 10 10 9 9 9 9 9 9 10 11 11 12 12 11 11 11 11 10 10 11 11 11 11 11 11 10 10 10
31 32 31 30 31 31 30 30 30 29 28 28 29 28 27 27 26 26 25 23 22 21 19 18 17 16 15 14 13 13 13 13 13 12 12 12 13 13 13 13 13 13 12 11 10 10 9 9 10 10 11 11 11 11 11 11 10 10 10 9 9 9 9 9 9 10 10 11 13 12 11 11 10 10 10 10 11 11 11 11 10 10 10 11 10
31 31 30 29 30 30 30 30 30 29 28 27 27 27 27 27 26 25 24 22 21 19 18 16 16 15 14 13 12 12 12 12 11 11 12 12 12 12 12 12 12 12 12 11 10 10 10 9 9 9 10 9 10 10 10 10 10 10 10 9 9 9 8 7 8 9 10 11 12 12 11 10 10 10 10 10 10 11 11 10 10 10 10 10 10
30 31 31 29 29 29 29 29 29 29 28 27 26 26 27 27 26 25 23 21 19 18 16 15 14 14 12 11 11 11 11 11 10 11 11 12 11 11 12 12 12 11 12 11 10 10 9 9 9 9 9 9 9 10 10 10 10 10 10 10 9 8 7 6 6 8 10 11 11 11 10 9 10 10 10 10 10 10 10 11 10 10 10 10 10
30 32 32 30 30 29 28 28 28 28 28 27 26 26 26 26 25 24 22 20 18 16 15 13 13 12 11 10 10 10 10 9 10 10 10 10 10 10 11 11 11 11 12 12 11 10 9 10 9 9 9 9 9 9 10 10 10 9 10 10 10 8 7 5 5 7 10 11 10 10 10 9 9 9 9 9 10 10 9 11 11 9 10 10 10
31 32 33 32 30 29 28 27 27 28 28 27 25 25 25 25 24 23 21 19 17 15 13 12 11 10 9 9 8 8 9 9 9 9 9 9 9 10 10 11 11 10 11 11 11 10 9 10 10 10 10 10 10 10 10 11 10 9 9 10 10 9 8 6 6 7 9 9 8 8 9 9 9 9 9 10 10 10 8 9 10 9 9 9 9
31 33 33 32 31 28 27 27 27 27 27 27 25 24 24 24 23 22 21 19 16 14 12 11 10 9 9 8 8 8 8 7 7 7 8 8 9 10 10 10 10 10 10 11 11 11 10 11 11 11 11 11 11 12 12 11 11 9 9 9 10 10 9 9 8 8 8 8 7 7 7 8 9 9 10 10 11 11 9 9 9 9 9 10 10
32 33 33 32 30 28 28 27 27 26 26 25 24 24 23 22 22 21 20 18 15 14 12 11 11 9 9 8 8 7 7 6 6 6 7 8 8 9 9 9 9 9 10 10 11 11 12 12 12 12 13 12 13 13 12 12 12 10 9 9 9 10 10 10 9 8 8 8 7 6 6 7 9 9 9 10 11 11 10 9 8 8 10 11 11
32 33 32 31 30 28 27 27 26 25 25 24 24 23 22 21 20 20 19 17 15 14 13 12 11 10 9 8 7 7 6 6 5 5 6 6 8 8 9 9 9 9 10 10 10 11 12 14 14 14 14 14 14 14 13 13 12 11 10 9 9 9 9 9 9 8 7 7 6 6 5 6 7 9 9 9 11 11 10 9 8 8 10 12 12
31 32 32 30 29 28 27 26 26 25 24 24 23 22 21 21 20 19 18 17 16 14 13 12 11 10 9 8 8 7 6 6 5 4 5 6 7 8 8 8 8 9 9 10 10 12 13 14 14 14 15 14 15 14 14 14 13 12 11 10 9 8 8 8 9 8 7 6 5 5 5 5 6 8 9 9 10 11 10 10 9 9 9 11 12
31 31 31 30 29 28 27 26 25 24 24 22 22 21 21 20 19 18 17 16 15 14 13 12 11 10 9 8 8 7 7 6 5 4 4 6 7 6 7 8 9 9 10 10 11 12 12 13 14 14 14 14 14 14 14 14 13 12 12 11 9 8 7 7 8 8 7 5 5 5 5 5 6 8 9 9 10 10 10 10 10 10 10 10 11
31 31 31 30 29 27 26 25 25 24 23 22 21 20 20 20 19 18 17 16 15 14 13 12 11 10 9 8 8 8 8 7 5 4 4 5 6 5 6 7 8 10 10 10 10 11 12 13 13 13 13 13 13 13 12 12 10 10 10 10 9 8 7 6 7 8 7 6 5 5 5 5 6 7 9 9 10 10 10 10 10 10 10 10 11
31 31 30 30 29 27 26 25 25 24 22 22 21 21 20 19 18 17 17 15 15 14 13 12 10 10 9 9 9 9 8 7 5 5 5 5 5 5 6 7 8 9 10 10 10 10 11 12 12 11 11 10 10 10 10 9 8 8 7 7 7 7 6 5 5 6 7 7 6 5 6 5 6 7 8 9 10 10 10 10 10 10 10 10 11
29 30 29 29 28 27 27 25 24 23 23 22 22 21 20 19 18 17 16 15 14 13 13 11 11 10 10 10 9 9 8 7 6 6 5 5 5 5 6 8 8 8 9 10 10 11 11 10 10 10 8 8 7 7 7 6 6 5 5 5 6 6 6 5 5 5 6 7 6 6 6 6 6 7 8 9 10 10 10 10 10 11 10 10 11
30 30 29 28 28 27 26 25 24 24 23 22 22 21 19 18 18 17 16 15 14 13 12 12 11 11 10 10 9 8 8 7 7 6 5 5 5 5 6 7 7 7 7 8 9 10 10 9 9 9 8 6 5 4 5 5 4 4 4 4 5 5 5 6 6 4 5 6 6 5 6 6 7 7 8 9 9 10 10 10 10 11 11 11 11
32 31 29 29 28 28 26 25 25 24 24 22 22 21 20 19 18 18 17 15 14 13 13 12 11 11 10 9 9 8 7 7 6 5 4 4 5 5 6 7 7 6 5 6 7 8 8 8 8 8 7 5 4 3 4 4 4 4 4 2 2 3 4 6 6 4 4 4 5 5 6 6 7 7 7 8 9 9 10 10 11 11 11 11 11
33 32 31 31 29 28 27 26 25 24 24 23 22 21 20 20 18 17 16 15 14 13 13 12 11 11 10 10 9 7 7 6 6 5 3 4 4 5 6 6 5 5 5 5 5 5 5 6 7 6 5 4 4 4 5 5 5 5 3 1 0 0 1 4 5 4 3 3 4 5 5 5 6 7 7 8 8 9 9 10 11 11 11 12 11
34 33 32 31 29 28 27 26 25 24 24 23 22 21 20 19 18 17 16 15 14 14 13 12 12 11 11 10 9 8 7 6 6 5 4 4 4 4 5 4 4 4 4 5 4 4 3 5 5 4 3 2 3 3 6 5 5 4 2 2 2 1 1 2 3 3 3 3 3 3 4 4 5 7 7 8 8 8 9 9 10 11 11 11 11
34 33 32 31 29 28 27 27 25 24 24 23 22 20 20 18 18 17 16 15 15 15 14 13 13 12 11 10 10 9 7 6 6 5 4 5 3 3 4 4 4 3 3 5 4 4 3 4 4 4 2 1 0 3 5 4 4 4 2 2 1 1 2 1 1 0 1 2 3 3 2 2 4 7 7 8 8 8 9 9 9 10 11 11 11
32 32 32 30 29 28 27 27 25 25 23 22 22 20 20 19 19 18 17 16 16 16 15 15 14 12 12 11 10 10 8 7 7 5 4 4 3 2 3 2 3 2 2 4 3 4 3 3 4 3 2 2 1 2 3 3 3 2 2 2 2 4 5 3 3 2 1 2 2 2 2 1 3 6 8 9 9 9 9 9 9 10 10 10 11
33 32 32 30 30 29 28 27 26 25 24 22 22 21 21 20 19 19 18 18 17 17 16 15 13 12 12 11 10 9 8 8 7 6 4 3 3 3 3 2 1 2 3 3 3 4 3 3 3 3 3 3 1 2 4 3 2 4 5 5 3 4 3 3 4 4 3 1 3 3 1 1 3 6 8 9 9 9 10 9 9 9 9 9 10
33 32 31 30 31 30 30 29 27 26 24 24 22 21 21 20 19 19 19 18 18 17 15 14 13 12 12 11 11 10 9 9 8 6 4 3 3 3 3 1 2 3 3 3 3 4 2 2 2 3 3 2 2 3 4 3 4 6 5 3 3 3 1 2 2 2 3 3 3 3 2 1 3 5 7 9 9 10 10 10 9 9 9 9 9
34 34 32 32 31 31 31 30 28 27 25 24 23 22 21 20 20 19 19 19 18 16 14 14 13 13 11 11 11 11 10 9 8 7 5 4 4 3 2 1 2 3 4 4 4 4 2 1 1 2 2 3 3 3 2 4 5 4 3 2 2 3 2 1 1 1 1 2 4 3 3 2 3 4 6 9 9 9 10 11 11 10 10 9 9
34 33 32 33 32 32 32 31 29 27 26 25 23 22 21 21 20 20 19 19 18 15 14 15 14 13 11 10 10 10 10 8 8 8 6 5 5 5 4 3 3 3 3 4 5 4 2 2 1 2 2 2 2 2 2 4 3 1 2 3 1 2 3 2 2 3 3 2 4 4 5 5 4 2 4 7 8 9 9 10 11 11 11 11 11
33 33 32 32 32 32 33 31 29 27 26 25 24 22 22 21 20 19 19 18 17 15 15 15 14 12 10 10 10 10 10 8 8 9 6 6 6 7 7 6 5 4 3 5 5 3 2 2 3 3 3 2 1 2 4 3 2 2 2 3 1 2 0 2 3 2 3 3 3 4 7 6 4 3 3 5 7 8 9 9 10 11 12 12 13
34 33 32 32 32 32 32 31 29 28 27 25 24 23 22 21 20 20 19 18 18 16 16 16 14 12 10 10 10 10 11 10 11 10 7 6 8 9 9 8 7 5 4 4 4 2 3 3 5 5 4 4 3 4 5 3 2 2 1 2 1 2 2 1 2 1 3 4 3 4 6 5 5 4 3 4 7 8 9 9 9 10 11 12 13
34 33 31 32 33 32 31 31 30 29 28 26 25 24 23 22 21 20 19 19 19 17 15 14 12 11 11 11 10 11 11 12 12 11 9 8 10 10 10 9 9 6 4 4 4 3 4 5 6 6 6 6 5 5 5 3 2 2 4 3 2 3 2 1 0 1 2 3 3 3 4 4 5 6 4 4 6 8 9 10 9 10 12 13 13
33 33 33 33 33 32 31 32 31 30 28 26 25 25 23 22 22 20 18 18 18 17 15 13 12 12 13 13 12 12 12 12 12 11 11 11 11 11 10 10 9 7 5 5 6 5 6 5 5 6 6 7 7 6 5 5 2 2 6 6 2 3 3 2 3 1 1 1 1 1 3 4 4 5 5 5 5 7 9 10 11 12 13 13 13
33 33 33 33 33 33 32 32 32 31 29 27 25 24 22 23 22 20 18 18 18 18 16 15 14 14 15 15 13 13 13 13 13 12 12 12 12 12 11 12 10 7 6 6 6 6 7 5 5 5 6 7 7 7 6 6 4 0 3 7 4 4 3 1 2 1 2 1 2 4 1 3 4 4 5 5 5 7 8 10 11 13 12 11 11
34 33 32 33 33 33 32 33 33 31 30 28 25 23 23 24 22 20 19 19 19 19 19 18 18 17 16 16 15 15 15 15 15 14 14 13 13 13 13 13 11 8 6 6 7 7 7 6 5 5 6 8 8 8 7 7 7 3 4 6 4 3 3 2 2 1 2 3 4 7 5 2 2 4 5 4 5 6 6 7 9 10 11 11 11
34 33 32 33 33 33 33 32 33 31 30 29 26 24 24 25 23 22 22 21 20 20 21 22 20 19 18 17 16 15 16 16 16 16 15 14 13 14 14 13 11 9 8 7 7 7 7 7 6 6 7 9 10 9 9 10 8 6 6 6 5 4 5 5 3 1 0 4 5 6 7 6 2 3 4 4 5 7 7 5 6 8 10 11 12
34 33 32 32 33 34 33 33 33 32 30 29 28 26 25 26 25 24 24 23 21 20 22 23 23 21 19 17 15 15 15 15 15 15 14 13 13 14 14 13 11 9 9 8 8 8 7 7 6 6 7 9 11 10 11 12 9 6 7 6 6 6 5 6 4 3 3 2 4 4 7 8 6 4 2 2 3 6 8 6 6 7 8 10 12
34 33 32 31 32 32 33 33 32 32 32 30 29 28 27 26 26 26 25 24 22 21 20 22 23 22 19 17 15 15 15 15 14 14 14 14 15 15 15 14 12 10 9 9 9 9 8 7 6 6 7 8 10 10 8 10 10 7 6 6 6 6 4 5 5 6 5 4 4 3 4 6 5 4 3 1 0 3 6 6 6 7 8 9 10
36 35 33 33 32 32 32 33 33 33 32 32 31 31 29 27 27 27 26 25 24 22 20 19 21 22 20 18 16 16 15 15 14 14 13 14 16 16 15 14 12 10 9 9 9 9 9 7 5 5 6 6 5 5 6 10 12 10 7 5 6 5 3 3 8 8 6 5 7 6 3 2 2 3 2 2 2 1 3 4 4 6 7 8 9
38 37 36 35 35 33 33 33 33 32 32 33 34 33 32 30 29 28 28 27 25 23 21 20 21 22 22 20 18 17 16 15 15 15 14 15 16 15 14 14 13 11 10 10 10 11 9 7 6 6 6 6 8 8 8 10 13 12 8 6 6 3 1 6 12 8 4 6 8 6 3 0 3 3 3 4 4 3 2 3 2 3 5 6 7
42 40 39 37 37 35 35 34 32 32 32 32 34 35 34 32 31 29 28 27 25 24 23 22 22 22 22 21 20 19 17 15 15 15 15 15 16 15 14 14 13 12 10 11 12 11 9 8 7 7 7 10 10 9 8 9 11 11 9 8 7 5 6 9 11 6 4 7 6 4 2 2 3 4 4 5 5 4 2 3 3 3 4 4 5
43 43 41 39 38 38 37 36 34 34 33 32 34 36 35 33 31 28 27 27 26 25 24 23 21 21 21 21 21 20 18 16 16 16 17 17 16 15 15 15 14 13 12 12 12 11 10 9 8 8 10 11 10 10 10 8 9 10 10 9 9 9 8 8 7 5 6 9 5 3 3 3 3 4 6 6 5 4 2 1 3 3 4 4 5
44 44 43 41 41 41 40 39 37 37 35 34 34 34 34 33 32 28 26 26 26 25 25 24 23 23 23 22 22 22 19 17 16 16 18 19 18 16 16 15 14 14 13 13 12 12 12 9 8 11 13 12 11 11 10 8 9 10 10 9 9 11 10 8 7 6 8 9 6 5 4 3 3 5 6 5 4 3 4 4 2 1 2 3 4
46 46 45 44 44 43 43 41 40 39 38 36 34 33 33 34 33 30 28 28 28 28 29 28 27 27 26 26 25 23 21 18 15 15 17 19 18 17 15 15 14 15 14 13 13 13 12 9 10 15 16 14 13 12 10 10 10 10 10 10 10 10 12 10 9 9 9 9 7 4 4 4 4 5 4 4 4 3 4 5 6 6 3 2 3
48 48 47 47 45 44 44 43 42 41 40 38 35 33 33 34 34 34 33 33 33 33 32 30 29 28 27 26 25 23 21 18 16 15 17 19 18 16 15 15 16 15 14 14 14 13 12 10 11 16 16 14 14 13 11 11 12 11 11 11 11 10 12 14 13 11 10 9 7 5 4 4 4 4 4 3 3 2 4 5 7 8 7 5 4
50 50 49 48 46 45 44 44 44 44 42 40 37 36 35 34 34 35 35 35 35 34 32 29 27 25 24 24 24 22 21 19 17 17 18 19 18 16 15 16 16 15 14 14 14 13 12 11 10 14 15 14 15 14 13 13 13 12 12 12 12 10 10 14 17 14 12 11 10 9 7 6 5 4 5 4 3 4 4 6 8 10 10 9 7
51 51 50 49 48 46 45 45 45 45 44 42 40 39 37 36 35 35 35 35 35 32 29 27 25 23 22 22 22 22 20 19 18 18 19 19 18 17 16 17 16 15 15 14 13 12 12 11 11 12 12 14 15 14 14 15 14 12 12 11 11 10 10 13 16 14 13 13 13 12 10 9 8 7 5 5 4 5 5 5 8 10 10 9 8
52 51 51 50 49 48 47 46 46 46 45 45 43 42 40 37 35 35 36 35 34 31 28 25 24 23 22 22 22 21 20 20 20 20 20 19 19 18 17 18 17 16 16 14 13 13 12 11 11 12 12 14 16 16 14 15 14 13 12 10 10 11 12 12 13 12 12 13 14 14 13 11 11 9 7 6 5 6 6 5 8 10 10 10 8
53 52 52 51 50 49 48 47 46 46 45 45 45 44 42 40 37 36 36 34 32 31 28 26 25 24 24 23 22 21 21 22 22 22 21 21 20 20 19 19 18 17 15 14 14 13 12 10 10 11 12 13 16 18 16 15 15 13 12 11 10 12 13 13 13 12 11 12 12 12 14 14 13 11 8 7 7 6 6 7 9 10 11 10 9
54 53 53 52 52 51 50 49 48 47 46 45 44 44 44 43 41 39 37 34 32 31 30 28 27 26 27 25 23 22 23 24 24 23 23 22 21 21 21 19 18 17 16 15 14 13 11 11 11 11 11 12 14 17 18 17 16 15 14 13 12 13 14 14 14 13 11 13 12 9 10 12 13 12 10 9 8 7 7 8 9 10 10 9 8
Wind_Direction
136 136 135 135 136 137 138 139 139 139 139 138 137 136 134 132 132 132 131 129 128 126 125 126 126 123 120 118 114 110 106 103 101 99 99 99 97 94 91 91 90 87 84 84 86 90 92 92 91 91 91 92 97 106 111 112 109 102 100 99 105 112 107 96 87 79 73 74 85 92 100 110 113 115 118 122 121 117 120 123 123 118 110 105 104
140 140 139 139 139 140 143 142 141 141 140 140 140 137 135 133 132 131 130 128 128 127 126 126 125 122 119 115 110 106 103 102 101 100 99 99 96 92 91 90 89 86 85 83 85 87 88 89 89 90 91 91 93 97 104 109 109 106 104 101 100 106 109 99 90 82 76 76 86 95 100 108 113 117 119 120 120 116 121 123 120 115 108 104 103
145 144 142 142 142 143 146 145 143 142 142 143 141 138 136 134 133 131 129 129 129 129 128 126 124 121 117 111 108 106 105 103 102 101 99 96 90 87 86 87 88 86 86 85 85 83 84 85 85 87 90 91 92 92 96 101 104 105 105 105 101 99 102 100 95 87 83 81 85 94 100 107 112 118 122 120 119 119 123 122 118 112 107 106 106
148 147 146 146 145 145 147 146 144 144 144 144 142 140 138 137 134 132 130 130 131 130 128 126 124 119 114 110 109 109 107 105 102 99 96 91 87 84 83 83 84 85 85 86 86 84 82 83 82 82 85 87 88 91 94 97 100 103 104 105 104 99 96 96 93 87 89 86 83 91 95 101 107 114 120 119 119 121 122 120 116 111 108 107 108
151 150 149 149 147 145 147 146 145 145 145 145 143 142 140 139 136 133 132 131 131 130 128 125 123 117 113 111 110 109 106 103 98 94 92 89 87 83 79 79 80 82 83 84 85 84 83 83 83 82 82 82 83 86 91 97 100 103 104 104 106 104 98 95 91 87 94 90 82 89 93 95 103 110 119 122 120 122 122 119 116 112 110 109 109
152 152 153 152 147 147 148 146 145 146 146 145 144 144 142 141 137 135 133 132 132 130 128 126 121 116 113 112 110 108 103 98 93 89 91 92 88 80 74 73 74 76 78 81 82 82 83 84 83 83 83 82 83 82 85 93 96 100 103 106 109 110 107 104 97 91 94 93 85 88 92 94 101 109 116 119 121 124 124 123 120 115 114 111 109
153 153 155 152 147 149 149 146 146 146 146 146 145 145 144 143 140 138 136 135 133 131 129 126 120 117 114 113 111 106 100 95 91 89 93 93 85 76 72 71 71 70 72 75 80 82 83 84 82 81 82 81 82 83 83 88 90 94 101 109 114 111 109 109 106 99 96 95 89 85 91 96 99 106 110 115 121 126 126 126 121 116 117 112 110
155 156 155 152 150 152 150 147 147 147 147 147 147 147 146 145 144 141 140 137 135 133 130 127 121 118 117 116 112 105 100 96 93 93 94 91 81 75 72 71 70 67 66 71 78 81 83 86 84 83 83 80 82 85 83 85 86 91 99 107 113 108 104 104 104 101 96 94 91 85 88 97 99 103 110 119 123 128 130 128 121 117 118 115 113
157 157 155 154 153 152 150 148 147 147 148 148 148 149 149 148 147 145 143 140 138 136 132 129 124 122 122 118 112 106 103 99 95 95 95 89 80 74 70 68 66 64 63 70 77 78 84 89 87 86 85 83 83 85 84 84 85 90 96 100 108 108 104 102 100 96 88 88 92 89 86 96 103 105 111 120 124 128 132 130 125 122 121 121 119
158 157 156 156 154 152 150 149 148 148 149 150 151 151 152 151 150 149 147 145 141 139 137 133 128 126 124 119 114 110 105 101 97 97 95 89 79 71 67 63 63 61 59 65 73 74 83 90 89 89 86 86 86 86 87 87 83 86 93 98 106 110 111 107 97 94 90 89 93 91 90 101 107 111 116 122 126 131 137 133 127 124 124 125 123
157 158 157 157 154 153 152 152 151 150 150 151 153 153 154 154 154 153 151 149 147 144 143 140 135 131 127 121 117 115 110 104 100 98 96 87 75 68 64 62 63 61 58 64 70 72 83 90 89 89 88 88 87 86 88 88 84 85 94 98 102 105 110 108 97 96 95 96 97 96 97 105 112 115 119 125 130 134 139 135 129 126 125 128 128
157 158 157 156 155 155 154 154 155 152 152 152 155 156 156 157 156 157 155 153 152 151 152 149 144 140 134 129 125 122 116 110 104 99 95 87 73 65 61 57 58 58 59 63 66 72 84 88 87 88 89 89 87 88 91 90 86 90 96 97 98 98 103 101 93 94 95 99 101 107 104 105 117 119 119 125 129 130 134 130 127 129 128 130 132
155 158 157 157 155 157 157 156 157 156 154 154 156 158 158 160 160 160 160 159 158 160 162 158 151 148 143 138 134 129 124 115 109 104 95 86 73 63 57 51 52 54 58 63 65 71 83 85 85 88 89 92 91 93 95 92 91 94 96 97 96 94 97 93 87 87 87 95 103 113 109 107 120 124 123 125 124 126 126 125 128 134 134 134 136
155 158 159 157 155 157 158 157 158 158 157 155 157 159 160 161 163 165 165 164 164 167 167 161 154 152 150 145 142 138 132 127 120 108 94 84 73 62 56 51 50 53 60 66 70 75 84 85 84 87 90 93 96 98 97 91 91 92 95 97 95 93 94 90 85 86 83 90 105 116 114 114 123 129 131 127 126 128 126 127 133 139 139 138 140
157 159 159 158 155 156 158 157 157 159 158 156 158 159 161 162 164 167 167 168 168 169 168 161 156 156 155 150 151 150 146 145 131 109 95 85 74 62 56 54 50 55 67 74 81 85 88 86 84 89 92 95 98 100 96 90 87 87 93 96 96 95 92 86 83 86 85 87 103 116 118 124 133 136 139 136 132 132 132 133 138 141 141 142 144
158 159 160 160 157 157 158 158 158 160 159 158 158 159 161 162 163 165 166 168 168 168 166 162 159 159 160 157 161 161 158 155 137 113 98 86 75 64 60 60 55 58 71 80 91 93 91 88 88 93 94 96 98 98 95 89 86 85 88 89 90 93 89 89 88 86 84 85 98 114 121 132 145 143 143 146 141 138 138 138 140 141 143 145 145
158 159 160 161 159 159 160 160 161 161 161 161 161 161 162 163 164 165 165 166 167 166 167 166 163 163 164 162 168 168 163 157 141 119 96 86 76 68 67 66 62 64 74 84 95 98 94 91 93 96 96 95 94 93 91 87 84 82 82 79 77 80 79 87 93 91 88 91 104 123 128 134 152 151 147 150 149 145 143 141 141 142 144 146 145
157 159 160 162 161 161 162 163 164 163 164 164 164 164 164 165 165 166 166 168 168 168 170 170 167 165 163 163 171 171 163 155 142 123 100 89 82 76 78 77 71 71 77 87 97 98 94 93 93 96 97 96 92 89 86 83 79 76 76 71 68 73 79 84 89 89 90 95 107 134 139 137 154 157 151 151 153 153 149 145 143 143 145 146 145
158 160 160 162 163 162 164 165 165 165 166 166 165 166 166 167 168 170 171 173 173 173 172 171 170 165 161 167 172 167 159 152 141 126 108 94 87 78 77 82 79 77 83 93 98 100 98 97 97 97 98 97 94 90 86 80 70 67 69 66 64 64 71 83 88 85 89 94 102 129 141 142 154 159 155 154 156 158 153 148 148 148 148 148 146
162 163 162 163 164 163 165 165 166 166 168 167 166 166 167 169 172 175 176 178 177 174 172 170 170 167 165 169 167 160 155 149 136 120 106 94 83 69 71 80 83 83 91 102 106 106 106 107 109 106 100 96 92 89 85 75 60 51 47 54 65 62 58 71 86 89 91 89 90 116 137 146 152 158 162 160 161 163 158 151 151 153 152 152 150
167 167 166 166 167 168 167 165 166 168 169 168 167 167 168 173 175 176 178 178 176 173 173 172 171 170 170 168 161 157 151 139 125 113 102 92 73 62 70 73 81 89 96 110 117 116 115 116 119 116 110 107 99 82 67 63 54 33 22 35 68 77 73 71 76 89 100 87 78 108 131 147 153 156 165 167 166 167 164 157 154 157 156 157 155
171 171 171 171 171 171 169 168 169 169 170 169 169 169 171 176 177 177 177 177 175 174 175 174 173 171 170 166 160 156 142 127 116 110 99 87 70 64 64 58 72 89 99 120 131 130 126 126 129 130 133 134 125 86 49 43 35 22 19 27 70 92 88 83 75 76 107 90 74 104 127 145 156 156 163 168 169 171 170 166 161 160 160 162 161
175 175 176 174 173 173 172 172 171 171 171 171 172 173 175 177 178 178 178 178 175 176 177 174 173 170 168 166 163 154 136 128 122 118 114 98 85 73 63 55 69 87 101 126 142 143 135 135 138 147 152 139 129 97 53 27 7 5 3 336 234 133 107 104 88 76 93 86 75 99 123 143 158 160 166 169 169 173 173 173 170 167 164 164 166
178 178 178 177 176 175 175 175 175 174 174 175 176 177 178 179 180 180 180 179 176 177 177 174 172 171 169 169 163 153 144 142 131 132 143 122 103 85 75 69 80 95 114 127 136 143 147 147 146 157 162 131 121 85 55 26 353 347 328 299 287 271 227 166 117 99 96 85 84 100 110 129 163 169 172 173 170 174 176 178 177 174 170 166 168
178 179 180 180 180 178 178 177 178 179 179 180 181 182 182 182 182 181 182 180 177 178 177 175 174 174 173 169 161 154 154 147 128 136 146 129 122 97 88 82 81 96 129 133 137 152 168 167 161 170 190 221 88 62 56 35 351 336 314 292 268 119 121 158 89 88 154 122 109 100 82 92 167 177 180 179 176 176 178 181 182 180 177 174 172
180 181 183 182 182 182 181 181 182 183 184 185 184 185 184 184 183 181 183 181 180 181 180 178 176 176 176 170 163 158 158 149 135 147 148 142 157 117 99 98 86 88 120 128 154 178 193 192 183 197 246 258 259 51 56 43 4 2 88 99 128 111 99 105 80 45 265 192 158 122 80 68 171 184 190 185 183 184 182 181 182 183 182 181 179
182 184 185 184 183 185 185 185 186 187 187 187 187 187 187 185 183 182 184 184 183 184 182 180 178 179 180 172 166 165 160 154 155 161 157 168 179 128 109 122 133 149 140 137 178 189 183 190 209 227 230 238 268 23 35 37 49 86 91 81 86 98 100 114 98 74 58 92 167 158 128 179 182 190 197 192 189 190 187 184 182 183 185 185 184
184 186 188 186 185 187 188 190 189 189 187 187 189 188 188 185 183 185 185 186 186 184 183 180 179 183 182 172 171 173 165 163 172 175 167 180 191 148 116 125 192 205 193 176 191 197 183 191 236 233 231 279 330 12 37 74 102 100 94 75 50 53 142 178 147 101 68 74 103 140 150 172 189 192 199 198 194 192 191 191 188 184 185 188 188
185 187 188 185 186 188 189 192 191 189 188 187 189 189 188 186 185 187 185 187 188 185 184 181 182 187 184 177 178 182 178 174 181 190 188 194 214 207 171 167 211 222 229 224 215 214 205 219 264 247 269 318 345 7 63 117 118 108 115 136 25 33 119 160 245 239 231 99 69 91 136 131 167 190 202 201 197 195 193 194 195 191 188 190 192
186 187 187 185 187 188 190 193 191 190 190 187 189 189 189 188 189 188 186 189 188 186 187 185 183 184 185 184 186 192 191 184 189 200 200 202 221 231 234 244 240 212 216 236 236 238 232 247 279 261 278 318 354 11 138 140 136 177 192 187 257 35 96 47 323 257 216 156 71 86 129 113 111 144 197 202 200 198 198 197 197 197 196 196 196
188 189 189 187 188 190 191 193 191 191 191 190 189 190 190 190 191 189 189 192 188 187 187 186 183 181 185 188 192 199 201 200 206 211 208 213 225 237 248 254 253 225 217 241 243 251 251 269 290 281 283 289 298 182 178 177 199 236 233 195 203 358 51 19 353 222 177 144 93 102 133 122 108 111 156 192 200 200 201 201 199 202 204 204 203
192 193 192 190 190 191 192 193 192 192 194 194 191 192 192 191 192 190 190 190 187 184 182 183 183 180 185 191 194 202 209 213 219 225 224 225 227 236 248 249 251 238 228 242 240 249 248 266 285 282 270 248 231 208 206 220 212 213 273 218 223 313 286 357 11 188 173 156 139 138 148 153 149 133 131 175 194 198 201 205 205 209 212 211 210
194 196 195 192 193 193 192 194 194 194 197 198 194 194 193 192 194 192 187 186 185 183 180 184 185 183 192 200 204 208 214 221 229 236 235 233 227 232 241 238 241 236 223 232 233 243 247 259 274 273 259 237 229 218 211 203 180 242 267 255 246 266 253 147 179 173 175 180 180 187 182 183 174 160 147 156 182 195 201 208 209 212 216 215 212
196 198 199 196 196 196 195 196 195 197 200 200 197 195 195 195 195 192 187 189 189 186 185 190 194 196 204 209 213 216 220 226 233 237 235 235 228 229 236 235 238 239 237 233 229 236 242 251 263 264 251 233 224 211 207 204 192 289 254 233 214 208 194 169 202 204 324 250 245 258 237 231 207 177 168 165 176 190 200 207 211 217 220 218 215
199 198 200 199 199 199 198 198 197 200 201 202 200 196 197 198 196 192 190 197 197 192 192 198 203 207 212 214 219 224 228 235 238 235 233 234 228 225 229 232 235 236 238 236 236 241 242 251 266 260 241 230 218 201 217 228 213 310 216 211 201 185 201 220 203 248 355 341 48 35 4 236 227 203 185 187 189 185 196 209 216 222 225 224 223
202 198 199 200 200 201 201 200 199 201 202 202 201 198 199 200 200 195 196 203 202 198 199 203 207 209 216 222 224 231 237 241 239 232 232 234 228 223 222 227 231 226 229 240 247 247 246 262 272 253 230 228 220 202 221 229 213 206 179 197 213 206 260 282 184 321 29 103 65 43 49 70 221 220 210 211 210 199 203 214 221 224 224 225 226
205 201 199 200 202 204 204 203 202 201 202 203 203 201 200 200 201 199 202 206 205 203 204 208 212 212 219 226 229 234 237 236 232 228 231 231 225 220 219 226 230 228 234 245 253 253 258 272 268 248 233 230 222 215 230 229 213 207 187 198 224 229 279 280 226 266 317 105 69 50 67 80 108 199 218 227 224 217 218 221 226 228 225 223 223
206 205 202 202 203 206 207 206 203 202 203 204 206 204 201 200 201 202 205 209 209 205 204 210 214 217 222 225 227 229 227 227 226 226 227 223 218 216 218 225 229 230 239 249 259 261 263 269 260 248 241 233 231 240 248 232 209 198 197 202 219 229 275 278 237 218 219 142 100 82 85 92 98 114 167 232 227 218 222 227 229 231 230 224 221
207 207 206 205 205 207 208 207 205 203 204 206 207 205 201 200 202 204 208 211 212 208 206 209 212 217 221 221 222 220 218 220 221 223 224 217 214 215 218 225 229 231 239 251 260 260 261 266 256 242 242 247 249 254 245 210 194 196 203 196 209 232 276 265 209 188 197 173 157 149 105 101 98 98 116 109 232 216 220 227 226 225 227 228 227
207 208 208 207 208 209 209 210 208 206 205 205 204 203 201 201 204 208 210 211 211 210 210 212 213 216 219 221 220 214 214 219 219 221 220 215 216 219 223 230 233 232 238 250 257 259 264 261 241 241 251 249 229 198 169 177 189 199 201 200 214 239 281 214 169 168 181 169 176 187 154 105 46 27 35 46 30 264 220 213 216 219 222 227 231
207 208 208 209 210 210 210 210 209 207 206 203 202 202 201 203 207 209 209 207 207 208 212 217 217 217 219 222 221 218 221 223 222 222 219 216 219 222 226 231 232 231 235 245 255 261 260 241 229 245 240 194 162 154 157 170 182 191 199 220 230 220 195 160 152 154 169 164 178 188 167 228 339 354 7 16 8 345 261 223 208 207 214 220 226
206 208 211 211 210 210 212 211 208 207 208 206 205 205 205 207 209 210 208 206 206 208 213 218 217 217 220 222 222 224 227 225 221 221 221 220 222 225 228 230 230 230 234 243 253 257 240 222 226 229 197 173 161 160 165 166 176 186 192 206 211 174 146 154 153 153 175 172 178 185 187 292 330 1 5 353 347 351 326 252 232 215 207 206 208
207 209 212 214 211 210 212 213 211 209 209 209 208 208 209 211 213 214 210 207 209 212 217 222 220 220 223 223 225 227 230 228 225 225 227 227 227 227 228 230 231 231 237 245 250 240 221 217 219 199 180 174 169 166 164 166 181 185 177 182 192 180 165 165 172 187 188 184 192 220 246 288 339 358 355 349 347 2 26 217 228 234 231 229 220
208 209 211 213 213 212 213 213 212 211 210 209 210 211 212 214 216 218 215 212 214 216 219 223 224 224 227 228 229 231 233 231 228 229 228 228 228 225 226 230 232 234 240 243 236 223 216 222 210 184 177 179 177 171 173 184 192 186 176 178 183 187 187 177 176 188 185 187 209 243 255 274 328 349 359 16 29 51 73 84 81 32 258 255 247
210 211 211 212 213 214 214 214 214 213 211 210 211 211 211 213 215 217 217 214 215 216 218 222 224 225 228 231 231 232 235 231 229 230 226 225 226 223 226 229 230 234 237 232 221 215 217 220 204 186 183 184 182 181 187 196 199 194 191 185 180 189 196 184 167 169 178 188 209 231 244 268 313 341 9 41 50 58 58 52 44 30 10 311 272
212 215 215 214 214 215 214 214 215 215 214 212 212 212 211 211 212 214 214 213 214 217 220 222 223 224 225 226 227 230 232 231 231 232 226 225 225 224 225 225 227 229 227 220 214 216 218 213 199 193 192 190 186 190 194 195 196 198 203 200 195 201 199 187 175 169 179 196 212 220 236 263 291 310 328 3 14 2 4 11 14 9 1 353 339
213 216 217 216 216 216 214 214 216 218 217 214 213 214 214 212 213 214 215 217 218 220 222 223 223 222 221 220 222 226 229 228 230 230 227 226 225 225 223 221 223 222 217 217 218 221 220 210 197 195 198 197 195 197 195 195 197 196 204 207 207 217 211 193 188 183 183 194 210 220 227 245 254 259 278 300 318 323 333 347 356 355 349 352 0
214 215 215 216 216 217 217 216 216 218 219 218 216 217 216 214 214 216 218 220 222 224 224 223 220 219 220 218 218 221 223 225 226 228 227 225 225 224 221 219 219 216 216 219 222 223 218 210 204 201 203 203 203 203 197 198 200 195 197 199 199 209 211 201 198 198 198 195 201 213 218 231 238 235 254 274 291 305 309 327 342 346 342 342 353
214 214 215 217 218 219 220 218 217 217 219 220 220 219 219 217 215 216 218 220 223 226 225 223 219 216 218 218 216 217 221 225 228 229 228 226 225 225 221 218 216 215 216 217 219 220 216 214 213 209 209 210 208 207 205 202 202 200 196 188 185 193 196 199 200 203 211 206 204 214 218 223 226 226 245 266 274 286 289 309 334 339 335 334 338
213 215 216 217 219 219 219 219 219 219 219 220 221 221 222 220 217 216 218 220 221 223 223 222 219 216 217 218 215 216 221 226 229 229 229 227 225 224 221 218 216 215 215 215 217 217 214 215 213 208 213 215 211 210 212 210 208 208 203 189 186 195 193 195 199 200 209 213 211 218 224 225 221 220 235 258 267 279 288 307 329 335 332 329 328
212 214 215 217 218 219 219 220 221 221 220 220 221 222 223 223 220 218 219 220 220 220 219 218 218 216 216 217 216 218 223 227 227 226 227 226 223 222 220 218 216 214 216 218 218 215 211 211 211 214 224 225 218 215 215 216 214 212 212 206 199 204 202 197 199 200 207 217 216 211 216 221 219 221 233 243 248 263 283 300 318 327 329 328 323